Starlink 1215

operational
NORAD ID: 45225 Int'l Des: 2020-012 Owner: SPXS Country: US Constellation: starlink
LEOCIRCULAR

About Starlink 1215

Description loading...

Live Position

Loading 3D Globe...

Upcoming Passes

Altitude History

Altitude vs Time

uPlot chart will show altitude changes over time

Two-Line Element Set

1 45225U 20012AZ 26094.71627379 -.00006915 00000-0 -22161-3 0 9994
2 45225 53.1623 237.4136 0001170 93.2824 266.8311 15.30190823339467
Epoch: Apr 4, 2026 • Age: 16 hours

Current Status

Altitude 484.0 km
Velocity 7.62 km/s
Sub-Earth Point -27.62°S, 112.89°W
Launch Date Feb 17, 2020
Age 6.1 years
Type internet

Technical Details

Classification Payload
Mass 260.00 kg
Dry Mass 248.00 kg
Total Mass 260.00 kg
Length 0.20 m
Diameter 2.80 m
Span 9.00 m
Shape Box + pan
Manufacturer SPXS
Bus Type Starlink
Phase Status In Orbit
Owner/State SPXS/US

Large Constellations

Loading constellations...